#timestamp,LO_Frequency,Hit,StdDev 
1621569615.4,286047000.2,N
1621569635.2,286046999.8,N
1621569655.1,286047001.4,N
1621569656.0,286047001.4,N
1621569675.8,286047002.9,N
1621569695.6,286047003.5,N
1621569715.5,286047000.5,N
1621569735.3,286046998.2,N
1621569755.2,286046998.2,N
1621569775.9,286046998.1,N
1621569795.7,286046998.9,N
1621569815.6,286047002.7,N
1621569835.4,286047002.0,N
1621569855.2,286047000.1,N
1621569875.1,286047002.4,N
1621569876.0,286047002.4,N
1621569895.8,286047002.1,N
1621569915.7,286047000.4,N
1621569935.5,286047002.6,N
1621569955.3,286047005.9,Y
1621569975.2,286047000.1,P
1621569995.0,286046999.1,P
1621569995.9,286046999.1,N
1621570015.8,286046997.2,Y
1621570035.6,286046996.9,P
1621570055.4,286046999.0,N
1621570075.3,286046997.2,N
1621570095.1,286046997.3,N
1621570115.9,286046996.8,N
1621570135.7,286046997.5,N
1621570155.5,286046998.4,N
1621570175.4,286047001.0,N
1621570195.2,286047000.5,N
1621570215.0,286047002.8,N
1621570215.9,286047002.8,N
1621570235.8,286047001.0,N
1621570255.6,286046998.7,N
1621570275.5,286046996.6,N
1621570295.3,286046997.7,N
1621570315.1,286046999.5,N
1621570335.9,286047001.2,N
1621570355.7,286047000.2,N
1621570375.6,286046999.7,N
1621570395.4,286047002.3,N
1621570415.2,286047004.0,N
1621570435.1,286047005.9,N
1621570436.0,286047005.9,N
1621570455.8,286047005.8,N
1621570475.6,286047003.0,N
1621570495.5,286047003.5,N
1621570515.3,286047005.4,N
1621570535.2,286047004.6,N
1621570555.9,286047007.3,N
1621570575.7,286047005.9,N
1621570595.6,286047004.1,N
1621570615.4,286047000.8,N
1621570635.2,286046998.6,N
1621570655.1,286046998.8,N
1621570656.0,286046998.8,N
1621570675.8,286046997.8,N
1621570695.7,286046995.5,N
1621570715.5,286046997.8,N
1621570735.3,286046997.3,N
1621570755.2,286046997.2,N
1621570775.0,286047000.7,N
1621570775.9,286047000.7,N
1621570795.7,286046998.6,N
1621570815.6,286046999.8,N
1621570835.4,286047001.4,N
1621570855.3,286047002.4,N
1621570875.1,286047002.7,N
1621570876.0,286047002.7,N
1621570895.8,286047002.8,N
1621570915.7,286047000.5,N
1621570935.5,286047000.8,N
1621570955.3,286047002.3,N
1621570975.2,286047000.5,N
1621570995.0,286047001.0,N
1621570995.9,286047001.0,N
1621571015.8,286046998.9,N
1621571035.6,286046998.2,N
1621571055.4,286046999.8,N
1621571075.3,286046999.7,N
1621571095.1,286047000.9,N
1621571115.8,286047002.5,N
1621571135.7,286047002.7,N
1621571155.5,286047004.0,N
1621571175.4,286046999.9,N
1621571195.2,286046998.6,N
1621571215.0,286046998.3,N
1621571215.9,286046998.3,N
1621571235.8,286046996.6,N
1621571255.6,286046998.8,N
1621571275.4,286046997.3,N
1621571295.3,286047001.2,N
1621571315.1,286047000.6,N
1621571335.9,286046999.8,N
1621571355.7,286047003.9,N
1621571375.5,286047003.6,N
1621571395.4,286047004.8,N
1621571415.2,286047007.2,Y
1621571435.0,286047003.4,P
1621571436.0,286047003.4,N
1621571455.8,286047005.3,P
1621571475.6,286047003.7,N
1621571495.5,286047011.9,Y
1621571515.3,286046997.7,P
1621571535.1,286046995.9,N
1621571555.9,286046996.0,N
1621571575.7,286046996.2,N
1621571595.6,286046995.3,N
1621571615.4,286046997.4,N
1621571635.2,286046999.5,N
1621571655.1,286046997.1,N
1621571656.0,286046997.1,N
1621571675.8,286046998.7,N
1621571695.6,286047002.1,N
1621571715.5,286047002.5,N
1621571735.3,286047001.3,N
1621571755.2,286047001.5,N
1621571775.9,286047000.5,N
1621571795.7,286046998.7,N
1621571815.6,286046999.1,N
1621571835.4,286046998.6,N
1621571855.2,286046999.1,N
1621571875.1,286046995.3,N
1621571876.0,286046995.3,N
1621571895.8,286046997.4,N
1621571915.7,286046995.3,N
1621571935.5,286046995.7,N
1621571955.3,286046996.1,N
1621571975.2,286046998.7,N
1621571995.0,286047001.1,N
1621571995.9,286047001.1,N
1621572015.8,286046998.5,N
1621572035.6,286046998.2,N
1621572055.4,286046998.9,N
1621572075.3,286046998.5,N
1621572095.1,286047001.5,N
1621572115.8,286047000.1,N
1621572135.7,286047002.4,N
1621572155.5,286047001.2,N
1621572175.3,286046996.9,N
1621572195.2,286047001.1,N
1621572215.0,286047000.8,N
1621572215.9,286047000.8,N
1621572235.8,286047001.0,N
1621572255.6,286047001.0,N
1621572275.4,286046998.4,N
1621572295.3,286046997.4,N
1621572315.1,286046997.9,N
1621572335.8,286046997.7,N
1621572355.7,286046995.1,N
1621572375.5,286046996.1,N
1621572395.4,286046995.7,N
1621572415.2,286046995.4,N
1621572435.0,286046997.4,N
1621572435.9,286046997.4,N
1621572455.8,286046995.8,N
1621572475.6,286046997.6,N
1621572495.5,286046996.7,N
1621572515.3,286046995.3,N
1621572535.1,286046995.7,N
1621572555.9,286046995.7,N
1621572575.7,286046995.7,N
1621572595.6,286046993.4,N
1621572615.4,286046994.8,N
1621572635.2,286046994.0,N
1621572655.1,286046992.2,Y
1621572656.0,286046992.2,P
1621572675.8,286046995.4,N
1621572695.7,286046995.1,N
1621572715.5,286046998.0,N
1621572735.3,286046997.1,N
1621572755.2,286046996.0,N
1621572775.0,286046997.2,N
1621572775.9,286046997.2,N
1621572795.7,286046997.0,N
1621572815.6,286046997.0,N
1621572835.4,286046997.3,N
1621572855.3,286046996.9,N
1621572875.1,286046997.0,N
1621572895.9,286046997.3,N
1621572915.7,286046999.6,N
1621572935.5,286046999.2,N
1621572955.4,286046996.9,N
1621572975.2,286046999.2,N
1621572995.0,286046997.8,N
1621572995.9,286046997.8,N
1621573015.8,286046996.7,N
1621573035.6,286046995.0,Y
1621573055.5,286046998.9,P
1621573075.3,286047000.6,N
1621573095.1,286047003.9,N
1621573115.9,286047005.6,N
1621573135.7,286047003.2,N
1621573155.6,286047000.1,N
1621573175.4,286046999.2,N
1621573195.2,286046999.2,N
